Theta_e
299 301 303 303 303 303 300 302 298 302 307 311 316 319 324 329 328 330 327 327 330 335 338 340 341 342 343 344 348 351 351 351 352 352 353 353 353 354 355 356 357 354 355 351
298 302 303 301 304 305 304 304 302 305 311 319 320 321 322 331 328 330 328 328 331 336 338 339 341 342 344 345 347 351 351 351 351 353 352 352 353 353 356 355 355 357 354 350
291 301 301 297 302 304 304 305 303 301 312 321 319 322 324 326 329 330 330 330 331 337 338 339 342 343 344 346 348 350 350 351 352 352 352 353 353 354 354 355 353 355 352 348
293 297 289 301 308 309 307 307 307 306 318 320 321 323 326 328 325 324 330 332 332 338 339 340 342 344 345 347 347 348 349 350 352 353 352 354 353 353 353 355 354 355 351 346
290 292 298 302 306 306 303 304 310 307 320 320 320 321 323 329 328 328 331 332 335 339 340 341 341 344 345 346 346 347 347 350 352 354 353 353 353 352 355 354 355 354 350 343
289 289 290 301 310 315 312 305 322 322 318 321 320 313 319 326 330 328 332 333 336 339 342 342 342 345 345 344 346 344 347 350 352 354 354 353 354 354 355 356 356 353 345 342
290 290 298 312 319 322 301 309 322 323 322 320 316 319 323 328 329 327 326 336 339 339 341 342 345 345 343 345 344 347 348 348 353 354 354 356 355 356 355 356 356 350 343 339
291 291 291 318 317 311 316 321 321 323 324 322 325 323 322 325 325 326 329 337 339 338 339 343 346 346 343 343 347 348 348 349 350 354 356 357 356 356 356 356 354 346 340 334
295 296 315 314 313 317 318 318 322 324 327 329 328 326 330 329 323 329 335 334 336 338 339 343 347 347 346 346 346 349 350 349 352 353 356 356 356 356 356 356 351 343 338 333
298 306 313 313 315 317 319 321 326 328 330 332 329 332 331 329 332 334 336 337 335 337 336 342 348 347 347 349 350 349 350 351 352 355 355 357 358 358 358 353 347 344 337 333
302 307 312 314 316 317 320 327 329 331 332 333 336 339 341 333 334 335 335 336 336 333 337 346 351 349 349 352 356 353 351 353 355 357 354 357 358 359 359 355 347 344 339 336
299 306 306 310 318 322 321 326 327 327 328 333 334 333 339 341 342 340 336 338 337 337 335 339 353 353 354 358 359 357 356 354 355 357 357 358 357 340 313 326 316 313 318 327
304 311 310 315 320 321 322 327 327 323 325 327 330 332 337 338 340 339 348 346 340 337 336 347 350 354 354 359 362 359 357 358 358 352 357 357 357 349 345 317 306 309 309 312
311 312 310 312 313 317 321 326 326 325 325 326 329 331 334 335 337 340 343 347 352 346 337 343 346 357 361 361 359 361 360 335 359 357 358 359 357 349 348 338 330 325 303 310
309 312 312 315 316 314 319 321 324 321 323 325 326 327 331 332 334 336 344 346 347 349 351 354 350 352 361 361 360 358 360 359 356 358 359 353 354 348 345 335 336 322 306 301
310 312 314 313 314 313 315 317 321 321 323 326 324 325 328 329 331 335 340 341 340 341 345 347 349 357 360 357 356 355 356 344 346 357 354 350 349 346 343 334 333 323 322 313
304 307 311 310 312 312 312 315 318 323 323 324 324 324 324 326 326 325 329 340 341 342 344 345 346 349 348 356 354 356 356 354 340 353 349 350 348 344 337 335 334 320 319 308
308 310 311 314 314 314 313 315 319 324 323 325 325 324 323 323 322 321 325 327 327 327 331 330 340 342 346 351 353 354 352 352 348 348 348 348 348 343 336 335 331 320 310 302
312 312 313 313 316 317 316 315 320 322 324 324 325 324 323 323 323 321 322 322 321 321 323 330 331 341 346 344 339 348 349 349 348 350 346 336 339 341 335 335 328 322 312 306
314 314 314 314 317 317 317 320 321 320 320 322 323 325 322 323 323 321 320 320 320 320 324 323 326 330 338 338 334 340 341 341 343 343 343 342 340 339 335 326 331 324 310 309
311 313 314 315 315 316 316 318 318 317 316 318 317 317 320 323 323 321 316 315 319 320 321 319 318 319 328 329 336 335 337 339 343 342 340 341 338 339 337 335 331 317 315 313
307 308 309 311 310 310 312 313 314 316 315 313 314 315 314 314 320 319 320 314 317 314 316 315 314 317 323 327 334 334 334 334 336 339 340 339 338 335 334 331 328 316 317 316
304 305 306 307 308 309 309 310 310 311 310 311 310 310 309 311 312 310 311 314 315 314 314 311 305 313 316 325 327 330 330 331 331 332 336 337 336 334 332 330 327 318 318 318
304 304 305 307 306 306 306 307 309 308 308 307 307 309 309 306 308 310 311 310 308 310 311 307 305 309 312 318 321 321 326 329 329 329 330 318 332 331 332 330 327 323 316 313
308 307 307 306 305 306 307 306 307 307 306 305 305 306 307 306 304 305 306 306 306 308 310 309 308 309 312 313 315 316 315 317 319 325 328 329 329 328 327 327 328 321 313 313
303 304 307 307 306 308 308 307 305 304 304 302 303 303 305 306 305 305 305 304 304 303 304 305 306 307 309 311 310 310 311 314 313 316 317 322 328 327 326 325 325 320 314 313
301 300 301 301 302 305 304 303 303 302 303 303 301 301 302 304 305 305 304 305 304 303 302 303 302 302 303 304 309 310 310 311 306 310 313 315 317 318 320 323 323 322 320 316
Wind_Speed
16 17 15 16 16 22 13 14 11 12 8 11 10 15 8 4 11 15 15 19 19 17 20 19 18 18 17 18 16 19 18 17 17 16 14 13 12 11 12 11 12 7 7 7
16 13 14 18 17 16 21 16 8 12 3 6 7 5 7 11 9 10 16 18 18 17 20 20 18 19 18 18 16 18 18 18 15 13 13 14 13 13 11 13 9 8 10 10
6 8 10 9 7 11 13 17 8 13 10 13 6 9 12 23 21 12 14 17 18 18 20 20 18 18 17 18 16 17 18 16 15 14 15 15 14 12 12 13 8 10 10 10
6 8 4 8 8 12 12 16 12 5 15 18 15 12 16 18 15 8 9 16 17 13 15 17 16 15 16 14 16 16 16 16 15 15 16 14 14 14 14 12 11 10 10 10
4 5 12 16 9 7 7 8 6 10 11 8 6 7 4 1 7 8 12 11 16 13 15 14 15 12 14 12 15 15 16 16 16 16 17 16 16 16 13 13 11 10 10 11
5 5 5 8 12 17 8 3 19 19 7 14 12 7 12 20 3 2 6 11 14 12 16 14 14 13 12 15 13 17 16 17 17 17 18 18 18 17 14 12 11 8 9 11
9 6 10 14 16 12 5 5 12 12 14 8 5 8 10 14 7 1 13 10 16 16 17 19 15 17 17 14 19 19 14 12 13 16 18 16 14 14 12 11 9 10 11 9
5 4 8 16 10 8 5 7 7 13 14 8 9 5 4 13 12 9 12 8 16 16 16 16 18 18 18 20 21 15 14 12 13 14 13 12 15 12 12 11 12 11 11 8
6 6 2 10 8 5 7 6 11 14 14 13 11 10 7 7 14 6 7 8 5 14 18 13 17 19 18 24 17 15 15 17 16 15 15 15 14 13 11 12 12 11 11 10
8 11 9 11 10 8 8 7 11 10 12 15 9 9 8 7 7 6 4 6 4 3 8 12 17 18 23 16 11 12 15 16 13 13 14 15 12 13 13 13 12 13 12 10
3 16 12 16 13 9 10 7 11 13 15 16 16 15 15 8 7 4 2 5 5 5 2 6 12 17 17 11 13 15 15 13 14 13 15 15 15 14 14 16 16 15 13 11
3 10 6 13 13 18 15 7 13 14 16 15 15 14 14 11 10 7 6 7 6 5 4 5 8 11 15 14 16 15 14 12 12 12 12 13 13 6 11 6 14 11 12 11
6 15 13 14 12 19 17 9 12 13 11 14 15 13 11 9 11 12 12 11 8 8 7 6 5 9 9 9 13 15 14 13 11 12 12 13 12 10 11 7 10 11 15 15
14 17 11 17 11 17 18 8 14 10 9 10 11 11 12 12 12 12 11 13 15 9 7 8 5 6 8 8 9 11 12 14 11 11 11 11 11 10 9 11 11 8 7 7
16 13 7 12 13 15 16 12 11 11 10 11 12 12 15 14 13 14 11 13 13 14 15 12 7 6 6 8 8 8 7 8 8 9 10 10 9 10 10 10 10 8 4 1
14 13 10 12 12 14 16 15 9 9 10 10 11 14 14 12 13 14 13 12 10 10 11 13 14 13 5 8 8 6 6 10 9 8 7 9 10 10 9 10 10 10 11 7
14 12 9 9 12 14 15 14 15 7 10 11 11 12 16 16 15 15 13 11 9 7 8 12 12 11 13 5 5 4 4 4 7 6 8 10 10 10 9 10 10 7 6 5
14 15 15 5 8 9 14 15 15 9 7 8 9 14 16 17 15 15 14 13 14 13 13 15 15 11 7 10 9 1 4 5 4 5 8 10 9 9 9 9 8 9 8 8
14 15 8 8 6 6 6 8 11 13 10 6 7 8 9 10 11 13 13 14 16 15 17 16 20 12 10 10 10 5 5 5 5 7 10 11 8 9 9 10 10 11 10 10
9 9 6 7 4 6 8 9 11 12 13 11 7 6 8 8 9 11 12 11 11 9 13 16 16 13 11 10 10 4 4 5 5 8 9 9 10 10 9 12 11 12 12 11
15 16 16 14 11 13 12 12 10 11 13 14 13 13 10 6 8 10 14 11 14 16 15 18 13 10 9 10 7 6 6 7 4 7 11 11 9 8 10 11 10 11 11 11
15 14 14 12 12 12 12 12 14 12 13 13 13 15 14 15 12 8 8 9 9 15 12 12 13 19 12 13 8 8 7 8 7 2 7 7 9 9 7 8 9 10 8 7
11 11 13 14 12 10 11 13 13 14 14 14 14 14 12 9 10 11 11 13 11 13 11 12 18 25 22 11 10 9 9 8 8 9 7 5 7 9 9 8 9 11 11 9
4 7 9 6 5 8 12 10 11 13 13 13 14 13 12 10 9 10 10 13 18 12 10 13 17 23 19 11 11 12 10 6 6 7 6 8 4 1 6 9 9 10 11 11
4 2 2 4 5 4 6 7 8 10 10 11 12 11 12 9 8 8 9 11 16 13 12 17 22 22 12 12 12 12 10 10 10 8 5 5 4 3 3 2 5 6 12 14
11 4 2 5 8 5 5 5 5 5 6 5 6 7 7 7 7 7 8 12 11 14 12 11 12 12 12 12 12 12 11 10 11 9 10 10 5 4 4 3 0 3 7 9
6 9 7 8 5 4 6 6 5 6 6 4 5 6 5 6 8 8 8 8 9 10 10 10 11 14 13 13 12 10 9 9 9 9 8 8 8 8 9 7 5 3 2 5
Wind_Direction
282 281 300 290 290 208 216 220 220 251 169 215 180 149 155 121 351 173 152 161 167 163 171 174 176 178 180 183 176 176 182 189 194 194 191 194 200 204 208 210 218 182 167 175
298 295 297 297 297 305 217 229 239 249 58 132 104 354 107 56 344 241 154 163 167 163 168 175 176 177 178 182 179 175 184 192 192 186 188 194 199 208 203 210 206 168 182 177
276 350 321 297 257 276 276 212 201 240 169 161 170 144 110 77 275 258 160 161 167 171 173 176 179 176 179 180 173 178 185 188 187 186 191 199 202 202 202 207 183 183 183 172
295 349 264 254 305 287 289 219 217 244 152 172 169 182 165 158 182 261 203 164 173 170 173 176 176 178 174 171 180 182 187 188 185 187 197 197 200 205 205 205 194 186 181 171
308 298 304 303 293 321 337 337 283 204 162 172 146 66 352 349 179 249 212 162 174 174 172 173 177 169 168 166 180 184 189 190 190 188 195 198 203 205 203 204 196 187 169 156
337 319 270 271 320 324 355 69 355 8 187 149 155 141 174 228 213 301 296 160 168 166 172 169 175 160 157 181 181 198 193 193 191 193 197 201 203 204 205 202 197 167 165 173
264 255 282 331 343 312 51 316 331 359 6 164 157 190 185 148 81 242 346 231 169 171 177 183 174 174 183 181 202 200 196 188 188 197 203 203 202 203 201 199 178 169 168 169
242 249 269 345 30 58 301 324 341 3 10 12 9 16 275 115 91 25 341 258 174 177 190 183 178 179 187 201 208 192 188 185 191 194 198 197 197 196 194 193 181 172 168 168
206 213 51 33 62 10 349 336 17 14 3 14 10 26 15 56 115 127 297 347 350 194 182 177 185 188 191 212 193 188 188 200 199 195 195 197 192 192 191 188 185 178 183 183
232 6 32 31 19 9 343 0 25 1 356 359 353 11 3 32 76 72 17 320 13 0 209 180 187 191 207 201 182 181 197 200 197 194 196 199 195 194 193 189 190 186 191 194
201 19 334 11 349 341 329 33 32 19 15 9 1 5 0 347 9 349 85 318 347 8 47 232 187 197 209 178 169 190 201 198 199 201 195 198 200 199 200 200 192 187 183 191
329 346 309 318 343 354 358 29 54 35 8 6 10 354 347 349 3 0 301 320 341 330 326 271 211 214 205 187 181 189 197 202 203 200 198 201 200 183 36 222 165 148 160 174
292 311 303 291 360 351 345 49 64 51 25 5 356 349 352 349 355 347 355 359 329 288 283 289 238 215 200 181 182 191 198 200 202 202 201 199 202 191 186 36 74 149 156 165
310 312 329 339 2 337 338 29 64 50 31 22 357 354 350 353 353 358 353 331 342 305 281 257 250 213 195 175 182 193 202 197 198 198 202 197 199 182 181 174 167 174 59 153
297 289 311 336 350 337 343 13 56 45 28 19 12 8 9 358 353 341 353 355 355 6 360 347 306 260 194 173 177 181 189 203 202 198 202 186 177 176 175 176 175 155 151 86
297 328 342 336 308 347 346 5 10 50 38 26 18 14 14 12 4 352 350 356 359 351 347 351 358 335 228 177 176 191 210 214 203 205 181 162 171 174 170 169 172 180 190 171
319 320 316 329 321 336 343 351 4 52 40 38 21 20 23 18 16 1 337 339 342 341 352 353 337 348 348 256 190 181 174 200 195 205 155 168 172 174 167 173 190 162 175 129
296 297 286 202 268 318 337 354 354 9 49 42 27 22 22 23 12 358 358 0 10 5 4 345 338 324 346 351 354 284 198 215 200 208 157 167 174 163 165 173 155 142 118 129
272 276 263 290 222 277 305 327 359 7 5 40 51 36 24 17 12 8 0 15 17 4 345 337 331 351 357 356 357 311 304 276 215 192 155 155 155 163 155 159 147 161 148 149
306 275 270 305 322 26 25 22 21 23 10 8 26 52 32 18 15 17 14 15 13 354 338 352 352 351 350 333 336 18 332 311 245 153 153 161 162 166 152 163 163 160 147 167
33 34 29 25 32 36 29 31 24 31 25 23 17 30 7 2 25 29 20 7 1 359 356 356 358 340 326 334 357 9 7 356 290 142 159 166 167 169 162 167 154 137 160 170
20 32 27 29 40 37 26 34 29 24 38 32 14 26 21 7 22 20 37 13 349 360 2 2 357 353 347 355 6 5 2 22 351 343 147 139 146 138 138 141 139 137 142 160
64 40 32 18 19 31 40 41 41 37 33 29 30 27 22 16 18 15 10 8 9 2 16 3 360 5 359 10 2 3 8 16 23 13 350 94 123 136 145 149 138 143 152 160
324 56 72 4 360 27 44 28 39 44 36 31 29 27 27 10 13 11 3 360 6 8 9 6 0 9 11 6 6 7 352 2 21 29 350 1 28 63 151 158 166 154 155 168
199 141 44 60 16 348 34 31 45 50 41 29 25 24 28 29 27 2 8 5 4 9 12 3 7 5 12 12 8 5 4 8 11 6 358 345 347 16 34 250 182 179 165 173
29 26 94 53 39 43 53 25 25 47 60 42 29 22 15 11 11 16 12 11 13 12 13 7 12 7 354 4 10 7 1 3 1 8 18 5 324 341 354 27 110 118 164 186
14 26 23 22 16 79 73 46 37 32 14 28 39 12 5 11 9 6 7 14 8 15 15 16 14 14 9 2 348 359 8 359 4 358 8 15 17 18 7 344 317 317 167 150